Ercan, Cyprus

7:53 AM EEST on July 31, 2016 (GMT +0300)
Ercan | | Change Station

Elev 299 ft 35.15 °N, 33.50 °E | Updated 33 minutes ago

Partly Cloudy
Partly Cloudy
77 °F
Feels Like 77 °F
N
0
Wind Variable Wind from North

Today
High -- | Low -- °F
--% Chance of Precip.
Yesterday
High -- | Low -- °F
Precip. -- in
Pressure 29.68 in
Visibility 5.0 miles
Clouds Few 2500 ft
Dew Point 73 °F
Humidity 89%
Rainfall 0.00 in
Snow Depth Not available.
5:54 AM 7:49 PM
Waning Crescent, 9% visible
METAR LCEN 310420Z 00000KT 8000 FEW025 25/23 Q1005 NOSIG RMK RWY11 00000KT
Pressure 29.68 in
Visibility 5.0 miles
Clouds Few 2500 ft
Dew Point 73 °F
Humidity 89%
Rainfall 0.00 in
Snow Depth Not available.
5:54 AM 7:49 PM
Waning Crescent, 9% visible
METAR LCEN 310420Z 00000KT 8000 FEW025 25/23 Q1005 NOSIG RMK RWY11 00000KT

10-Day Weather Forecast

×

Almanac

Astronomy

Jul. 31, 2016 Rise Set
Actual Time
Civil Twilight
Nautical Twilight
Astronomical Twilight
Moon
Length of Visible Light
Length of Day
Tomorrow will be .
, % of the Moon is Illuminated

Today's Extremes

Country Highs Country Lows

Community

WunderPhotos

Upload Photos

1,928,759 photos uploaded!

WunderBlog® & News

Nearby

Air Quality

  Air Quality AQ Index Pollutant
Not available.

Snow Depth

Station Depth Elevation

Earthquake Activity

City Distance Mag. Time & Date
Minimum magnitude displayed is 2.5.

Coastal Water Temperatures

Place Temperature

Stations

Nearby Weather Stations

Station Location Temp. Windchill Dew Point Humidity Wind Precip. Elev Updated Type